owner,sensor,date,latitude,longitude,vertical_datum,sea_water_practical_salinity,qcFlag 
ENP,ioos.station.NOAA.NDBC:TRRF1:1,2016-11-01T00:00:00Z,25.2170,-80.6500,1.5,0.28,1111122 
ENP,ioos.station.NOAA.NDBC:TRRF1:1,2016-11-01T01:00:00Z,25.2170,-80.6500,1.5,0.28,1111122 
ENP,ioos.station.NOAA.NDBC:TRRF1:1,2016-11-01T04:00:00Z,25.2170,-80.6500,1.5,0.28,1111122 
ENP,ioos.station.NOAA.NDBC:TRRF1:1,2016-11-01T05:00:00Z,25.2170,-80.6500,1.5,0.28,1111122 
ENP,ioos.station.NOAA.NDBC:TRRF1:1,2016-11-01T06:00:00Z,25.2170,-80.6500,1.5,0.28,1111122 
ENP,ioos.station.NOAA.NDBC:TRRF1:1,2016-11-01T07:00:00Z,25.2170,-80.6500,1.5,0.28,1111122 
ENP,ioos.station.NOAA.NDBC:TRRF1:1,2016-11-01T08:00:00Z,25.2170,-80.6500,1.5,0.28,1111122 
ENP,ioos.station.NOAA.NDBC:TRRF1:1,2016-11-01T09:00:00Z,25.2170,-80.6500,1.5,0.28,1111122 
ENP,ioos.station.NOAA.NDBC:TRRF1:1,2016-11-01T11:00:00Z,25.2170,-80.6500,1.5,0.28,1111122 
ENP,ioos.station.NOAA.NDBC:TRRF1:1,2016-11-01T12:00:00Z,25.2170,-80.6500,1.5,0.28,1111122 
ENP,ioos.station.NOAA.NDBC:TRRF1:1,2016-11-01T13:00:00Z,25.2170,-80.6500,1.5,0.28,1111122 
ENP,ioos.station.NOAA.NDBC:TRRF1:1,2016-11-01T14:00:00Z,25.2170,-80.6500,1.5,0.28,1111122 
ENP,ioos.station.NOAA.NDBC:TRRF1:1,2016-11-01T15:00:00Z,25.2170,-80.6500,1.5,0.28,1111122 
ENP,ioos.station.NOAA.NDBC:TRRF1:1,2016-11-01T16:00:00Z,25.2170,-80.6500,1.5,0.28,1111122 
ENP,ioos.station.NOAA.NDBC:TRRF1:1,2016-11-01T17:00:00Z,25.2170,-80.6500,1.5,0.28,1111122 
ENP,ioos.station.NOAA.NDBC:TRRF1:1,2016-11-01T18:00:00Z,25.2170,-80.6500,1.5,0.28,1111122 
ENP,ioos.station.NOAA.NDBC:TRRF1:1,2016-11-01T19:00:00Z,25.2170,-80.6500,1.5,0.28,1111122 
ENP,ioos.station.NOAA.NDBC:TRRF1:1,2016-11-01T20:00:00Z,25.2170,-80.6500,1.5,0.28,1111122 
ENP,ioos.station.NOAA.NDBC:TRRF1:1,2016-11-01T21:00:00Z,25.2170,-80.6500,1.5,0.28,1111122 
ENP,ioos.station.NOAA.NDBC:TRRF1:1,2016-11-01T22:00:00Z,25.2170,-80.6500,1.5,0.28,1111122 
ENP,ioos.station.NOAA.NDBC:TRRF1:1,2016-11-01T23:00:00Z,25.2170,-80.6500,1.5,0.28,1111122 
ENP,ioos.station.NOAA.NDBC:TRRF1:1,2016-11-02T00:00:00Z,25.2170,-80.6500,1.5,0.28,1111122 
ENP,ioos.station.NOAA.NDBC:TRRF1:1,2016-11-02T17:00:00Z,25.2170,-80.6500,1.5,0.28,1111122 
ENP,ioos.station.NOAA.NDBC:TRRF1:1,2016-11-02T18:00:00Z,25.2170,-80.6500,1.5,0.28,1111122 
ENP,ioos.station.NOAA.NDBC:TRRF1:1,2016-11-02T19:00:00Z,25.2170,-80.6500,1.5,0.28,1111122 
ENP,ioos.station.NOAA.NDBC:TRRF1:1,2016-11-02T20:00:00Z,25.2170,-80.6500,1.5,0.28,1111122 
ENP,ioos.station.NOAA.NDBC:TRRF1:1,2016-11-02T21:00:00Z,25.2170,-80.6500,1.5,0.28,1111122 
ENP,ioos.station.NOAA.NDBC:TRRF1:1,2016-11-02T22:00:00Z,25.2170,-80.6500,1.5,0.28,1111122 
ENP,ioos.station.NOAA.NDBC:TRRF1:1,2016-11-02T23:00:00Z,25.2170,-80.6500,1.5,0.28,1111122 
ENP,ioos.station.NOAA.NDBC:TRRF1:1,2016-11-03T00:00:00Z,25.2170,-80.6500,1.5,0.28,1111122 
ENP,ioos.station.NOAA.NDBC:TRRF1:1,2016-11-03T01:00:00Z,25.2170,-80.6500,1.5,0.28,1111122 
ENP,ioos.station.NOAA.NDBC:TRRF1:1,2016-11-03T04:00:00Z,25.2170,-80.6500,1.5,0.28,1111122 
ENP,ioos.station.NOAA.NDBC:TRRF1:1,2016-11-03T07:00:00Z,25.2170,-80.6500,1.5,0.28,1111122 
ENP,ioos.station.NOAA.NDBC:TRRF1:1,2016-11-03T08:00:00Z,25.2170,-80.6500,1.5,0.28,1111122 
ENP,ioos.station.NOAA.NDBC:TRRF1:1,2016-11-03T09:00:00Z,25.2170,-80.6500,1.5,0.28,1111122 
ENP,ioos.station.NOAA.NDBC:TRRF1:1,2016-11-03T11:00:00Z,25.2170,-80.6500,1.5,0.28,1111122 
ENP,ioos.station.NOAA.NDBC:TRRF1:1,2016-11-03T12:00:00Z,25.2170,-80.6500,1.5,0.28,1111122 
ENP,ioos.station.NOAA.NDBC:TRRF1:1,2016-11-03T13:00:00Z,25.2170,-80.6500,1.5,0.28,1111122 
ENP,ioos.station.NOAA.NDBC:TRRF1:1,2016-11-03T14:00:00Z,25.2170,-80.6500,1.5,0.28,1111122 
ENP,ioos.station.NOAA.NDBC:TRRF1:1,2016-11-03T15:00:00Z,25.2170,-80.6500,1.5,0.28,1111122 
ENP,ioos.station.NOAA.NDBC:TRRF1:1,2016-11-03T16:00:00Z,25.2170,-80.6500,1.5,0.28,1111122 
ENP,ioos.station.NOAA.NDBC:TRRF1:1,2016-11-03T17:00:00Z,25.2170,-80.6500,1.5,0.28,1111122 
ENP,ioos.station.NOAA.NDBC:TRRF1:1,2016-11-03T18:00:00Z,25.2170,-80.6500,1.5,0.28,1111122 
ENP,ioos.station.NOAA.NDBC:TRRF1:1,2016-11-03T19:00:00Z,25.2170,-80.6500,1.5,0.28,1111122 
ENP,ioos.station.NOAA.NDBC:TRRF1:1,2016-11-03T20:00:00Z,25.2170,-80.6500,1.5,0.28,1111122 
ENP,ioos.station.NOAA.NDBC:TRRF1:1,2016-11-03T21:00:00Z,25.2170,-80.6500,1.5,0.28,1111122 
ENP,ioos.station.NOAA.NDBC:TRRF1:1,2016-11-03T22:00:00Z,25.2170,-80.6500,1.5,0.28,1111122 
ENP,ioos.station.NOAA.NDBC:TRRF1:1,2016-11-03T23:00:00Z,25.2170,-80.6500,1.5,0.28,1111122 
ENP,ioos.station.NOAA.NDBC:TRRF1:1,2016-11-04T00:00:00Z,25.2170,-80.6500,1.5,0.28,1111122 
ENP,ioos.station.NOAA.NDBC:TRRF1:1,2016-11-04T01:00:00Z,25.2170,-80.6500,1.5,0.28,1111122 
ENP,ioos.station.NOAA.NDBC:TRRF1:1,2016-11-04T04:00:00Z,25.2170,-80.6500,1.5,0.28,1111122 
ENP,ioos.station.NOAA.NDBC:TRRF1:1,2016-11-04T07:00:00Z,25.2170,-80.6500,1.5,0.28,1111122 
ENP,ioos.station.NOAA.NDBC:TRRF1:1,2016-11-04T08:00:00Z,25.2170,-80.6500,1.5,0.28,1111122 
ENP,ioos.station.NOAA.NDBC:TRRF1:1,2016-11-04T09:00:00Z,25.2170,-80.6500,1.5,0.28,1111122 
ENP,ioos.station.NOAA.NDBC:TRRF1:1,2016-11-04T11:00:00Z,25.2170,-80.6500,1.5,0.28,1111122 
ENP,ioos.station.NOAA.NDBC:TRRF1:1,2016-11-04T12:00:00Z,25.2170,-80.6500,1.5,0.28,1111122 
ENP,ioos.station.NOAA.NDBC:TRRF1:1,2016-11-04T13:00:00Z,25.2170,-80.6500,1.5,0.28,1111122 
ENP,ioos.station.NOAA.NDBC:TRRF1:1,2016-11-04T14:00:00Z,25.2170,-80.6500,1.5,0.28,1111122 
ENP,ioos.station.NOAA.NDBC:TRRF1:1,2016-11-04T15:00:00Z,25.2170,-80.6500,1.5,0.28,1111122 
ENP,ioos.station.NOAA.NDBC:TRRF1:1,2016-11-04T16:00:00Z,25.2170,-80.6500,1.5,0.28,1111122 
ENP,ioos.station.NOAA.NDBC:TRRF1:1,2016-11-04T17:00:00Z,25.2170,-80.6500,1.5,0.28,1111122 
ENP,ioos.station.NOAA.NDBC:TRRF1:1,2016-11-04T18:00:00Z,25.2170,-80.6500,1.5,0.28,1111122 
ENP,ioos.station.NOAA.NDBC:TRRF1:1,2016-11-04T19:00:00Z,25.2170,-80.6500,1.5,0.28,1111122 
ENP,ioos.station.NOAA.NDBC:TRRF1:1,2016-11-04T20:00:00Z,25.2170,-80.6500,1.5,0.28,1111122 
ENP,ioos.station.NOAA.NDBC:TRRF1:1,2016-11-04T21:00:00Z,25.2170,-80.6500,1.5,0.28,1111122 
ENP,ioos.station.NOAA.NDBC:TRRF1:1,2016-11-04T22:00:00Z,25.2170,-80.6500,1.5,0.28,1111122 
ENP,ioos.station.NOAA.NDBC:TRRF1:1,2016-11-04T23:00:00Z,25.2170,-80.6500,1.5,0.28,1111122 
ENP,ioos.station.NOAA.NDBC:TRRF1:1,2016-11-05T00:00:00Z,25.2170,-80.6500,1.5,0.28,1111122 
ENP,ioos.station.NOAA.NDBC:TRRF1:1,2016-11-05T01:00:00Z,25.2170,-80.6500,1.5,0.28,1111122 
ENP,ioos.station.NOAA.NDBC:TRRF1:1,2016-11-05T04:00:00Z,25.2170,-80.6500,1.5,0.28,1111122 
ENP,ioos.station.NOAA.NDBC:TRRF1:1,2016-11-05T07:00:00Z,25.2170,-80.6500,1.5,0.28,1111122 
ENP,ioos.station.NOAA.NDBC:TRRF1:1,2016-11-05T08:00:00Z,25.2170,-80.6500,1.5,0.28,1111122 
ENP,ioos.station.NOAA.NDBC:TRRF1:1,2016-11-05T09:00:00Z,25.2170,-80.6500,1.5,0.28,1111122 
ENP,ioos.station.NOAA.NDBC:TRRF1:1,2016-11-05T10:00:00Z,25.2170,-80.6500,1.5,0.28,1111122 
ENP,ioos.station.NOAA.NDBC:TRRF1:1,2016-11-05T12:00:00Z,25.2170,-80.6500,1.5,0.28,1111122 
ENP,ioos.station.NOAA.NDBC:TRRF1:1,2016-11-05T13:00:00Z,25.2170,-80.6500,1.5,0.28,1111122 
ENP,ioos.station.NOAA.NDBC:TRRF1:1,2016-11-05T14:00:00Z,25.2170,-80.6500,1.5,0.28,1111122 
ENP,ioos.station.NOAA.NDBC:TRRF1:1,2016-11-05T15:00:00Z,25.2170,-80.6500,1.5,0.28,1111122 
ENP,ioos.station.NOAA.NDBC:TRRF1:1,2016-11-05T16:00:00Z,25.2170,-80.6500,1.5,0.28,1111122 
ENP,ioos.station.NOAA.NDBC:TRRF1:1,2016-11-05T17:00:00Z,25.2170,-80.6500,1.5,0.28,1111122 
ENP,ioos.station.NOAA.NDBC:TRRF1:1,2016-11-05T18:00:00Z,25.2170,-80.6500,1.5,0.28,1111122 
ENP,ioos.station.NOAA.NDBC:TRRF1:1,2016-11-05T19:00:00Z,25.2170,-80.6500,1.5,0.28,1111122 
ENP,ioos.station.NOAA.NDBC:TRRF1:1,2016-11-05T20:00:00Z,25.2170,-80.6500,1.5,0.28,1111122 
ENP,ioos.station.NOAA.NDBC:TRRF1:1,2016-11-05T21:00:00Z,25.2170,-80.6500,1.5,0.28,1111122 
ENP,ioos.station.NOAA.NDBC:TRRF1:1,2016-11-05T22:00:00Z,25.2170,-80.6500,1.5,0.28,1111122 
ENP,ioos.station.NOAA.NDBC:TRRF1:1,2016-11-05T23:00:00Z,25.2170,-80.6500,1.5,0.28,1111122 
ENP,ioos.station.NOAA.NDBC:TRRF1:1,2016-11-06T00:00:00Z,25.2170,-80.6500,1.5,0.28,1111122 
ENP,ioos.station.NOAA.NDBC:TRRF1:1,2016-11-06T01:00:00Z,25.2170,-80.6500,1.5,0.28,1111122 
ENP,ioos.station.NOAA.NDBC:TRRF1:1,2016-11-06T04:00:00Z,25.2170,-80.6500,1.5,0.28,1111122 
ENP,ioos.station.NOAA.NDBC:TRRF1:1,2016-11-06T05:00:00Z,25.2170,-80.6500,1.5,0.28,1111122 
ENP,ioos.station.NOAA.NDBC:TRRF1:1,2016-11-07T11:00:00Z,25.2170,-80.6500,1.5,0.28,1111122 
ENP,ioos.station.NOAA.NDBC:TRRF1:1,2016-11-08T12:00:00Z,25.2170,-80.6500,1.5,0.28,1111122 
ENP,ioos.station.NOAA.NDBC:TRRF1:1,2016-11-09T04:00:00Z,25.2170,-80.6500,1.5,0.28,1111122 
ENP,ioos.station.NOAA.NDBC:TRRF1:1,2016-11-10T03:00:00Z,25.2170,-80.6500,1.5,0.28,1111122 
ENP,ioos.station.NOAA.NDBC:TRRF1:1,2016-11-10T06:00:00Z,25.2170,-80.6500,1.5,0.29,1111122 
ENP,ioos.station.NOAA.NDBC:TRRF1:1,2016-11-10T11:00:00Z,25.2170,-80.6500,1.5,0.28,1111122 
ENP,ioos.station.NOAA.NDBC:TRRF1:1,2016-11-11T03:00:00Z,25.2170,-80.6500,1.5,0.29,1111122 
ENP,ioos.station.NOAA.NDBC:TRRF1:1,2016-11-11T06:00:00Z,25.2170,-80.6500,1.5,0.29,1111122 
ENP,ioos.station.NOAA.NDBC:TRRF1:1,2016-11-11T11:00:00Z,25.2170,-80.6500,1.5,0.29,1111122 
ENP,ioos.station.NOAA.NDBC:TRRF1:1,2016-11-12T03:00:00Z,25.2170,-80.6500,1.5,0.3,1111122 
ENP,ioos.station.NOAA.NDBC:TRRF1:1,2016-11-12T11:00:00Z,25.2170,-80.6500,1.5,0.3,1111122 
ENP,ioos.station.NOAA.NDBC:TRRF1:1,2016-11-13T03:00:00Z,25.2170,-80.6500,1.5,0.3,1111122 
ENP,ioos.station.NOAA.NDBC:TRRF1:1,2016-11-13T06:00:00Z,25.2170,-80.6500,1.5,0.31,1111122 
ENP,ioos.station.NOAA.NDBC:TRRF1:1,2016-11-13T11:00:00Z,25.2170,-80.6500,1.5,0.89,1111122 
ENP,ioos.station.NOAA.NDBC:TRRF1:1,2016-11-14T03:00:00Z,25.2170,-80.6500,1.5,3.13,1111122 
ENP,ioos.station.NOAA.NDBC:TRRF1:1,2016-11-14T11:00:00Z,25.2170,-80.6500,1.5,4.8,1111122 
ENP,ioos.station.NOAA.NDBC:TRRF1:1,2016-11-15T03:00:00Z,25.2170,-80.6500,1.5,5.75,1111122 
ENP,ioos.station.NOAA.NDBC:TRRF1:1,2016-11-15T06:00:00Z,25.2170,-80.6500,1.5,6.43,1111122 
ENP,ioos.station.NOAA.NDBC:TRRF1:1,2016-11-15T16:00:00Z,25.2170,-80.6500,1.5,7.98,1111122 
ENP,ioos.station.NOAA.NDBC:TRRF1:1,2016-11-15T17:00:00Z,25.2170,-80.6500,1.5,7.9,1111122 
ENP,ioos.station.NOAA.NDBC:TRRF1:1,2016-11-15T18:00:00Z,25.2170,-80.6500,1.5,8.15,1111122 
ENP,ioos.station.NOAA.NDBC:TRRF1:1,2016-11-15T19:00:00Z,25.2170,-80.6500,1.5,8.07,1111122 
ENP,ioos.station.NOAA.NDBC:TRRF1:1,2016-11-15T20:00:00Z,25.2170,-80.6500,1.5,8.29,1111122 
ENP,ioos.station.NOAA.NDBC:TRRF1:1,2016-11-15T21:00:00Z,25.2170,-80.6500,1.5,8.66,1111122 
ENP,ioos.station.NOAA.NDBC:TRRF1:1,2016-11-15T22:00:00Z,25.2170,-80.6500,1.5,8.71,1111122 
ENP,ioos.station.NOAA.NDBC:TRRF1:1,2016-11-15T23:00:00Z,25.2170,-80.6500,1.5,8.88,1111122 
ENP,ioos.station.NOAA.NDBC:TRRF1:1,2016-11-16T00:00:00Z,25.2170,-80.6500,1.5,9.08,1111122 
ENP,ioos.station.NOAA.NDBC:TRRF1:1,2016-11-16T02:00:00Z,25.2170,-80.6500,1.5,9.08,1111122 
ENP,ioos.station.NOAA.NDBC:TRRF1:1,2016-11-16T05:00:00Z,25.2170,-80.6500,1.5,9.13,1111122 
ENP,ioos.station.NOAA.NDBC:TRRF1:1,2016-11-16T06:00:00Z,25.2170,-80.6500,1.5,9.16,1111122 
ENP,ioos.station.NOAA.NDBC:TRRF1:1,2016-11-16T08:00:00Z,25.2170,-80.6500,1.5,9.39,1111122 
ENP,ioos.station.NOAA.NDBC:TRRF1:1,2016-11-16T09:00:00Z,25.2170,-80.6500,1.5,9.55,1111122 
ENP,ioos.station.NOAA.NDBC:TRRF1:1,2016-11-16T10:00:00Z,25.2170,-80.6500,1.5,9.78,1111122 
ENP,ioos.station.NOAA.NDBC:TRRF1:1,2016-11-16T11:00:00Z,25.2170,-80.6500,1.5,9.84,1111122 
ENP,ioos.station.NOAA.NDBC:TRRF1:1,2016-11-16T12:00:00Z,25.2170,-80.6500,1.5,9.79,1111122 
ENP,ioos.station.NOAA.NDBC:TRRF1:1,2016-11-16T13:00:00Z,25.2170,-80.6500,1.5,9.69,1111122 
ENP,ioos.station.NOAA.NDBC:TRRF1:1,2016-11-16T14:00:00Z,25.2170,-80.6500,1.5,9.87,1111122 
ENP,ioos.station.NOAA.NDBC:TRRF1:1,2016-11-16T15:00:00Z,25.2170,-80.6500,1.5,9.69,1111122 
ENP,ioos.station.NOAA.NDBC:TRRF1:1,2016-11-16T16:00:00Z,25.2170,-80.6500,1.5,9.34,1111122 
ENP,ioos.station.NOAA.NDBC:TRRF1:1,2016-11-16T17:00:00Z,25.2170,-80.6500,1.5,9.26,1111122 
ENP,ioos.station.NOAA.NDBC:TRRF1:1,2016-11-16T18:00:00Z,25.2170,-80.6500,1.5,9.15,1111122 
ENP,ioos.station.NOAA.NDBC:TRRF1:1,2016-11-16T19:00:00Z,25.2170,-80.6500,1.5,8.58,1111122 
ENP,ioos.station.NOAA.NDBC:TRRF1:1,2016-11-16T20:00:00Z,25.2170,-80.6500,1.5,7.87,1111122 
ENP,ioos.station.NOAA.NDBC:TRRF1:1,2016-11-16T21:00:00Z,25.2170,-80.6500,1.5,7.5,1111122 
ENP,ioos.station.NOAA.NDBC:TRRF1:1,2016-11-16T22:00:00Z,25.2170,-80.6500,1.5,7.24,1111122 
ENP,ioos.station.NOAA.NDBC:TRRF1:1,2016-11-16T23:00:00Z,25.2170,-80.6500,1.5,6.71,1111122 
ENP,ioos.station.NOAA.NDBC:TRRF1:1,2016-11-17T00:00:00Z,25.2170,-80.6500,1.5,6.16,1111122 
ENP,ioos.station.NOAA.NDBC:TRRF1:1,2016-11-17T01:00:00Z,25.2170,-80.6500,1.5,6.03,1111122 
ENP,ioos.station.NOAA.NDBC:TRRF1:1,2016-11-17T02:00:00Z,25.2170,-80.6500,1.5,6.07,1111122 
ENP,ioos.station.NOAA.NDBC:TRRF1:1,2016-11-17T03:00:00Z,25.2170,-80.6500,1.5,5.84,1111122 
ENP,ioos.station.NOAA.NDBC:TRRF1:1,2016-11-17T05:00:00Z,25.2170,-80.6500,1.5,5.54,1111122 
ENP,ioos.station.NOAA.NDBC:TRRF1:1,2016-11-17T06:00:00Z,25.2170,-80.6500,1.5,5.42,1111122 
ENP,ioos.station.NOAA.NDBC:TRRF1:1,2016-11-17T08:00:00Z,25.2170,-80.6500,1.5,4.84,1111122 
ENP,ioos.station.NOAA.NDBC:TRRF1:1,2016-11-17T09:00:00Z,25.2170,-80.6500,1.5,4.46,1111122 
ENP,ioos.station.NOAA.NDBC:TRRF1:1,2016-11-17T10:00:00Z,25.2170,-80.6500,1.5,4.2,1111122 
ENP,ioos.station.NOAA.NDBC:TRRF1:1,2016-11-17T12:00:00Z,25.2170,-80.6500,1.5,3.5,1111122 
ENP,ioos.station.NOAA.NDBC:TRRF1:1,2016-11-17T14:00:00Z,25.2170,-80.6500,1.5,3.1,1111122 
ENP,ioos.station.NOAA.NDBC:TRRF1:1,2016-11-17T15:00:00Z,25.2170,-80.6500,1.5,3.49,1111122 
ENP,ioos.station.NOAA.NDBC:TRRF1:1,2016-11-17T16:00:00Z,25.2170,-80.6500,1.5,3.13,1111122 
ENP,ioos.station.NOAA.NDBC:TRRF1:1,2016-11-17T17:00:00Z,25.2170,-80.6500,1.5,2.89,1111122 
ENP,ioos.station.NOAA.NDBC:TRRF1:1,2016-11-17T18:00:00Z,25.2170,-80.6500,1.5,2.62,1111122 
ENP,ioos.station.NOAA.NDBC:TRRF1:1,2016-11-17T19:00:00Z,25.2170,-80.6500,1.5,2.55,1111122 
ENP,ioos.station.NOAA.NDBC:TRRF1:1,2016-11-17T20:00:00Z,25.2170,-80.6500,1.5,2.47,1111122 
ENP,ioos.station.NOAA.NDBC:TRRF1:1,2016-11-17T21:00:00Z,25.2170,-80.6500,1.5,2.42,1111122 
ENP,ioos.station.NOAA.NDBC:TRRF1:1,2016-11-17T22:00:00Z,25.2170,-80.6500,1.5,2.36,1111122 
ENP,ioos.station.NOAA.NDBC:TRRF1:1,2016-11-17T23:00:00Z,25.2170,-80.6500,1.5,2.28,1111122 
ENP,ioos.station.NOAA.NDBC:TRRF1:1,2016-11-18T00:00:00Z,25.2170,-80.6500,1.5,2.25,1111122 
ENP,ioos.station.NOAA.NDBC:TRRF1:1,2016-11-18T01:00:00Z,25.2170,-80.6500,1.5,2.17,1111122 
ENP,ioos.station.NOAA.NDBC:TRRF1:1,2016-11-18T02:00:00Z,25.2170,-80.6500,1.5,2.08,1111122 
ENP,ioos.station.NOAA.NDBC:TRRF1:1,2016-11-18T03:00:00Z,25.2170,-80.6500,1.5,2.03,1111122 
ENP,ioos.station.NOAA.NDBC:TRRF1:1,2016-11-18T05:00:00Z,25.2170,-80.6500,1.5,1.87,1111122 
ENP,ioos.station.NOAA.NDBC:TRRF1:1,2016-11-18T06:00:00Z,25.2170,-80.6500,1.5,1.74,1111122 
ENP,ioos.station.NOAA.NDBC:TRRF1:1,2016-11-18T08:00:00Z,25.2170,-80.6500,1.5,1.54,1111122 
ENP,ioos.station.NOAA.NDBC:TRRF1:1,2016-11-18T09:00:00Z,25.2170,-80.6500,1.5,1.45,1111122 
ENP,ioos.station.NOAA.NDBC:TRRF1:1,2016-11-18T10:00:00Z,25.2170,-80.6500,1.5,1.38,1111122 
ENP,ioos.station.NOAA.NDBC:TRRF1:1,2016-11-18T11:00:00Z,25.2170,-80.6500,1.5,1.31,1111122 
ENP,ioos.station.NOAA.NDBC:TRRF1:1,2016-11-18T12:00:00Z,25.2170,-80.6500,1.5,1.24,1111122 
ENP,ioos.station.NOAA.NDBC:TRRF1:1,2016-11-18T13:00:00Z,25.2170,-80.6500,1.5,1.18,1111122 
ENP,ioos.station.NOAA.NDBC:TRRF1:1,2016-11-18T14:00:00Z,25.2170,-80.6500,1.5,1.14,1111122 
ENP,ioos.station.NOAA.NDBC:TRRF1:1,2016-11-18T15:00:00Z,25.2170,-80.6500,1.5,1.13,1111122 
ENP,ioos.station.NOAA.NDBC:TRRF1:1,2016-11-18T16:00:00Z,25.2170,-80.6500,1.5,1.04,1111122 
ENP,ioos.station.NOAA.NDBC:TRRF1:1,2016-11-18T17:00:00Z,25.2170,-80.6500,1.5,0.97,1111122 
ENP,ioos.station.NOAA.NDBC:TRRF1:1,2016-11-18T18:00:00Z,25.2170,-80.6500,1.5,0.91,1111122 
ENP,ioos.station.NOAA.NDBC:TRRF1:1,2016-11-18T19:00:00Z,25.2170,-80.6500,1.5,0.86,1111122 
ENP,ioos.station.NOAA.NDBC:TRRF1:1,2016-11-18T20:00:00Z,25.2170,-80.6500,1.5,0.82,1111122 
ENP,ioos.station.NOAA.NDBC:TRRF1:1,2016-11-18T21:00:00Z,25.2170,-80.6500,1.5,0.79,1111122 
ENP,ioos.station.NOAA.NDBC:TRRF1:1,2016-11-18T22:00:00Z,25.2170,-80.6500,1.5,0.77,1111122 
ENP,ioos.station.NOAA.NDBC:TRRF1:1,2016-11-18T23:00:00Z,25.2170,-80.6500,1.5,0.75,1111122 
ENP,ioos.station.NOAA.NDBC:TRRF1:1,2016-11-19T00:00:00Z,25.2170,-80.6500,1.5,0.74,1111122 
ENP,ioos.station.NOAA.NDBC:TRRF1:1,2016-11-19T01:00:00Z,25.2170,-80.6500,1.5,0.68,1111122 
ENP,ioos.station.NOAA.NDBC:TRRF1:1,2016-11-19T02:00:00Z,25.2170,-80.6500,1.5,0.57,1111122 
ENP,ioos.station.NOAA.NDBC:TRRF1:1,2016-11-19T04:00:00Z,25.2170,-80.6500,1.5,0.53,1111122 
ENP,ioos.station.NOAA.NDBC:TRRF1:1,2016-11-19T05:00:00Z,25.2170,-80.6500,1.5,0.52,1111122 
ENP,ioos.station.NOAA.NDBC:TRRF1:1,2016-11-19T06:00:00Z,25.2170,-80.6500,1.5,0.51,1111122 
ENP,ioos.station.NOAA.NDBC:TRRF1:1,2016-11-19T08:00:00Z,25.2170,-80.6500,1.5,0.49,1111122 
ENP,ioos.station.NOAA.NDBC:TRRF1:1,2016-11-19T09:00:00Z,25.2170,-80.6500,1.5,0.48,1111122 
ENP,ioos.station.NOAA.NDBC:TRRF1:1,2016-11-19T10:00:00Z,25.2170,-80.6500,1.5,0.47,1111122 
ENP,ioos.station.NOAA.NDBC:TRRF1:1,2016-11-19T12:00:00Z,25.2170,-80.6500,1.5,0.45,1111122 
ENP,ioos.station.NOAA.NDBC:TRRF1:1,2016-11-19T13:00:00Z,25.2170,-80.6500,1.5,0.45,1111122 
ENP,ioos.station.NOAA.NDBC:TRRF1:1,2016-11-19T14:00:00Z,25.2170,-80.6500,1.5,0.44,1111122 
ENP,ioos.station.NOAA.NDBC:TRRF1:1,2016-11-19T15:00:00Z,25.2170,-80.6500,1.5,0.44,1111122 
ENP,ioos.station.NOAA.NDBC:TRRF1:1,2016-11-19T16:00:00Z,25.2170,-80.6500,1.5,0.44,1111122 
ENP,ioos.station.NOAA.NDBC:TRRF1:1,2016-11-19T17:00:00Z,25.2170,-80.6500,1.5,0.43,1111122 
ENP,ioos.station.NOAA.NDBC:TRRF1:1,2016-11-19T18:00:00Z,25.2170,-80.6500,1.5,0.42,1111122 
ENP,ioos.station.NOAA.NDBC:TRRF1:1,2016-11-19T19:00:00Z,25.2170,-80.6500,1.5,0.42,1111122 
ENP,ioos.station.NOAA.NDBC:TRRF1:1,2016-11-19T20:00:00Z,25.2170,-80.6500,1.5,0.42,1111122 
ENP,ioos.station.NOAA.NDBC:TRRF1:1,2016-11-19T21:00:00Z,25.2170,-80.6500,1.5,0.42,1111122 
ENP,ioos.station.NOAA.NDBC:TRRF1:1,2016-11-19T22:00:00Z,25.2170,-80.6500,1.5,0.42,1111122 
ENP,ioos.station.NOAA.NDBC:TRRF1:1,2016-11-19T23:00:00Z,25.2170,-80.6500,1.5,0.41,1111122 
ENP,ioos.station.NOAA.NDBC:TRRF1:1,2016-11-20T00:00:00Z,25.2170,-80.6500,1.5,0.41,1111122 
ENP,ioos.station.NOAA.NDBC:TRRF1:1,2016-11-20T02:00:00Z,25.2170,-80.6500,1.5,0.41,1111122 
ENP,ioos.station.NOAA.NDBC:TRRF1:1,2016-11-20T03:00:00Z,25.2170,-80.6500,1.5,0.41,1111122 
ENP,ioos.station.NOAA.NDBC:TRRF1:1,2016-11-20T05:00:00Z,25.2170,-80.6500,1.5,0.4,1111122 
ENP,ioos.station.NOAA.NDBC:TRRF1:1,2016-11-20T06:00:00Z,25.2170,-80.6500,1.5,0.4,1111122 
ENP,ioos.station.NOAA.NDBC:TRRF1:1,2016-11-20T08:00:00Z,25.2170,-80.6500,1.5,0.39,1111122 
ENP,ioos.station.NOAA.NDBC:TRRF1:1,2016-11-20T09:00:00Z,25.2170,-80.6500,1.5,0.39,1111122 
ENP,ioos.station.NOAA.NDBC:TRRF1:1,2016-11-20T10:00:00Z,25.2170,-80.6500,1.5,0.39,1111122 
ENP,ioos.station.NOAA.NDBC:TRRF1:1,2016-11-20T12:00:00Z,25.2170,-80.6500,1.5,0.39,1111122 
ENP,ioos.station.NOAA.NDBC:TRRF1:1,2016-11-20T13:00:00Z,25.2170,-80.6500,1.5,0.39,1111122 
ENP,ioos.station.NOAA.NDBC:TRRF1:1,2016-11-20T14:00:00Z,25.2170,-80.6500,1.5,0.39,1111122 
ENP,ioos.station.NOAA.NDBC:TRRF1:1,2016-11-20T15:00:00Z,25.2170,-80.6500,1.5,0.39,1111122 
ENP,ioos.station.NOAA.NDBC:TRRF1:1,2016-11-20T16:00:00Z,25.2170,-80.6500,1.5,0.39,1111122 
ENP,ioos.station.NOAA.NDBC:TRRF1:1,2016-11-20T17:00:00Z,25.2170,-80.6500,1.5,0.38,1111122 
ENP,ioos.station.NOAA.NDBC:TRRF1:1,2016-11-20T18:00:00Z,25.2170,-80.6500,1.5,0.37,1111122 
ENP,ioos.station.NOAA.NDBC:TRRF1:1,2016-11-20T19:00:00Z,25.2170,-80.6500,1.5,0.38,1111122 
ENP,ioos.station.NOAA.NDBC:TRRF1:1,2016-11-20T20:00:00Z,25.2170,-80.6500,1.5,0.38,1111122 
ENP,ioos.station.NOAA.NDBC:TRRF1:1,2016-11-20T21:00:00Z,25.2170,-80.6500,1.5,0.38,1111122 
ENP,ioos.station.NOAA.NDBC:TRRF1:1,2016-11-20T22:00:00Z,25.2170,-80.6500,1.5,0.38,1111122 
ENP,ioos.station.NOAA.NDBC:TRRF1:1,2016-11-20T23:00:00Z,25.2170,-80.6500,1.5,0.38,1111122 
ENP,ioos.station.NOAA.NDBC:TRRF1:1,2016-11-21T00:00:00Z,25.2170,-80.6500,1.5,0.38,1111122 
ENP,ioos.station.NOAA.NDBC:TRRF1:1,2016-11-21T01:00:00Z,25.2170,-80.6500,1.5,0.38,1111122 
ENP,ioos.station.NOAA.NDBC:TRRF1:1,2016-11-21T02:00:00Z,25.2170,-80.6500,1.5,0.37,1111122 
ENP,ioos.station.NOAA.NDBC:TRRF1:1,2016-11-21T04:00:00Z,25.2170,-80.6500,1.5,0.37,1111122 
ENP,ioos.station.NOAA.NDBC:TRRF1:1,2016-11-21T05:00:00Z,25.2170,-80.6500,1.5,0.37,1111122 
ENP,ioos.station.NOAA.NDBC:TRRF1:1,2016-11-21T07:00:00Z,25.2170,-80.6500,1.5,0.37,1111122 
ENP,ioos.station.NOAA.NDBC:TRRF1:1,2016-11-21T08:00:00Z,25.2170,-80.6500,1.5,0.37,1111122 
ENP,ioos.station.NOAA.NDBC:TRRF1:1,2016-11-21T09:00:00Z,25.2170,-80.6500,1.5,0.37,1111122 
ENP,ioos.station.NOAA.NDBC:TRRF1:1,2016-11-21T10:00:00Z,25.2170,-80.6500,1.5,0.37,1111122 
ENP,ioos.station.NOAA.NDBC:TRRF1:1,2016-11-21T12:00:00Z,25.2170,-80.6500,1.5,0.36,1111122 
ENP,ioos.station.NOAA.NDBC:TRRF1:1,2016-11-21T13:00:00Z,25.2170,-80.6500,1.5,0.37,1111122 
ENP,ioos.station.NOAA.NDBC:TRRF1:1,2016-11-21T14:00:00Z,25.2170,-80.6500,1.5,0.37,1111122 
ENP,ioos.station.NOAA.NDBC:TRRF1:1,2016-11-21T15:00:00Z,25.2170,-80.6500,1.5,0.37,1111122 
ENP,ioos.station.NOAA.NDBC:TRRF1:1,2016-11-21T16:00:00Z,25.2170,-80.6500,1.5,0.36,1111122 
ENP,ioos.station.NOAA.NDBC:TRRF1:1,2016-11-21T17:00:00Z,25.2170,-80.6500,1.5,0.36,1111122 
ENP,ioos.station.NOAA.NDBC:TRRF1:1,2016-11-21T18:00:00Z,25.2170,-80.6500,1.5,0.36,1111122 
ENP,ioos.station.NOAA.NDBC:TRRF1:1,2016-11-21T19:00:00Z,25.2170,-80.6500,1.5,0.36,1111122 
ENP,ioos.station.NOAA.NDBC:TRRF1:1,2016-11-21T20:00:00Z,25.2170,-80.6500,1.5,0.36,1111122 
ENP,ioos.station.NOAA.NDBC:TRRF1:1,2016-11-21T21:00:00Z,25.2170,-80.6500,1.5,0.36,1111122 
ENP,ioos.station.NOAA.NDBC:TRRF1:1,2016-11-21T22:00:00Z,25.2170,-80.6500,1.5,0.36,1111122 
ENP,ioos.station.NOAA.NDBC:TRRF1:1,2016-11-21T23:00:00Z,25.2170,-80.6500,1.5,0.36,1111122 
ENP,ioos.station.NOAA.NDBC:TRRF1:1,2016-11-22T00:00:00Z,25.2170,-80.6500,1.5,0.36,1111122 
ENP,ioos.station.NOAA.NDBC:TRRF1:1,2016-11-22T01:00:00Z,25.2170,-80.6500,1.5,0.36,1111122 
ENP,ioos.station.NOAA.NDBC:TRRF1:1,2016-11-22T02:00:00Z,25.2170,-80.6500,1.5,0.36,1111122 
ENP,ioos.station.NOAA.NDBC:TRRF1:1,2016-11-22T03:00:00Z,25.2170,-80.6500,1.5,0.36,1111122 
ENP,ioos.station.NOAA.NDBC:TRRF1:1,2016-11-22T05:00:00Z,25.2170,-80.6500,1.5,0.36,1111122 
ENP,ioos.station.NOAA.NDBC:TRRF1:1,2016-11-22T06:00:00Z,25.2170,-80.6500,1.5,0.36,1111122 
ENP,ioos.station.NOAA.NDBC:TRRF1:1,2016-11-22T08:00:00Z,25.2170,-80.6500,1.5,0.35,1111122 
ENP,ioos.station.NOAA.NDBC:TRRF1:1,2016-11-22T09:00:00Z,25.2170,-80.6500,1.5,0.35,1111122 
ENP,ioos.station.NOAA.NDBC:TRRF1:1,2016-11-22T10:00:00Z,25.2170,-80.6500,1.5,0.35,1111122 
ENP,ioos.station.NOAA.NDBC:TRRF1:1,2016-11-22T11:00:00Z,25.2170,-80.6500,1.5,0.35,1111122 
ENP,ioos.station.NOAA.NDBC:TRRF1:1,2016-11-22T12:00:00Z,25.2170,-80.6500,1.5,0.36,1111122 
ENP,ioos.station.NOAA.NDBC:TRRF1:1,2016-11-22T14:00:00Z,25.2170,-80.6500,1.5,0.36,1111122 
ENP,ioos.station.NOAA.NDBC:TRRF1:1,2016-11-22T15:00:00Z,25.2170,-80.6500,1.5,0.35,1111122 
ENP,ioos.station.NOAA.NDBC:TRRF1:1,2016-11-22T16:00:00Z,25.2170,-80.6500,1.5,0.35,1111122 
ENP,ioos.station.NOAA.NDBC:TRRF1:1,2016-11-22T17:00:00Z,25.2170,-80.6500,1.5,0.35,1111122 
ENP,ioos.station.NOAA.NDBC:TRRF1:1,2016-11-22T18:00:00Z,25.2170,-80.6500,1.5,0.35,1111122 
ENP,ioos.station.NOAA.NDBC:TRRF1:1,2016-11-22T19:00:00Z,25.2170,-80.6500,1.5,0.35,1111122 
ENP,ioos.station.NOAA.NDBC:TRRF1:1,2016-11-22T20:00:00Z,25.2170,-80.6500,1.5,0.35,1111122 
ENP,ioos.station.NOAA.NDBC:TRRF1:1,2016-11-22T21:00:00Z,25.2170,-80.6500,1.5,0.35,1111122 
ENP,ioos.station.NOAA.NDBC:TRRF1:1,2016-11-22T22:00:00Z,25.2170,-80.6500,1.5,0.36,1111122 
ENP,ioos.station.NOAA.NDBC:TRRF1:1,2016-11-22T23:00:00Z,25.2170,-80.6500,1.5,0.36,1111122 
ENP,ioos.station.NOAA.NDBC:TRRF1:1,2016-11-23T00:00:00Z,25.2170,-80.6500,1.5,0.36,1111122 